Regional Weather Roundup
Issued by NWS Newport/Morehead, NC

Current Version | Previous Version | Graphics & Text | Print | Product List | Glossary Off
Versions: 1 2 3 4 5 6 7 8 9 10 11 12 13 14 15 16 17 18 19 20 21 22 23 24 25 26 27 28 29 30 31 32 33 34 35 36 37 38 39 40 41 42 43 44 45 46 47 48 49 50

000
ASUS42 KMHX 300122
RWRMHX
WEATHER ROUNDUP FOR EASTERN NORTH CAROLINA
NATIONAL WEATHER SERVICE NEWPORT/MOREHEAD CITY NC
900 PM EDT MON SEP 29 2014

NOTE: "FAIR" INDICATES FEW OR NO CLOUDS BELOW 12,000 FEET
WITH NO SIGNIFICANT WEATHER AND/OR OBSTRUCTIONS TO VISIBILITY

NCZ015>017-031-032-045>047-102-103-300200-
NORTH COAST

CITY           SKY/WX    TMP DP  RH WIND       PRES   REMARKS
EDENTON        CLOUDY    67  64  91 NW5       29.96S
ELIZABETH CITY CLOUDY    67  65  93 CALM      29.95F
KITTY HAWK     CLOUDY    69  66  88 CALM      29.94S
MANTEO         CLOUDY    68  65  90 NE5       29.95F

$$

NCZ045>047-081-094-103-104-300200-
CENTRAL COAST

CITY           SKY/WX    TMP DP  RH WIND       PRES   REMARKS
FRISCO         CLOUDY    69  65  86 VRB6      29.93F
SWANQUARTER      N/A     68 N/A N/A N1        29.91S

$$

NCZ095-097-098-100-101-300200-
SOUTHERN COAST

CITY           SKY/WX    TMP DP  RH WIND       PRES   REMARKS
BEAUFORT       CLOUDY    70  68  93 N8        29.95S
CEDAR ISLAND     N/A     72 N/A N/A N10       29.97S
JACKSONVILLE   LGT RAIN  68  66  93 NE3       29.95F
NEWPORT        NOT AVBL
PINEY ISLAND   CLOUDY    74  66  76 N6        29.94S HAZE
WILMINGTON     RAIN      67  65  93 SE8       29.95S FOG


$$

NCZ011>013-027>030-043-044-078>080-089-090>093-098-300200-
COASTAL PLAIN

CITY           SKY/WX    TMP DP  RH WIND       PRES   REMARKS
AHOSKIE        LGT RAIN  63  62  97 CALM      29.98R
CLINTON        CLOUDY    65  64  99 N3        29.99R
ELIZABETHTOWN  MOCLDY    65  65 100 CALM      29.97R
GOLDSBORO      CLOUDY    65  65  98 CALM      29.97R
GREENVILLE     LGT RAIN  66  64  94 CALM      30.00R
HAVELOCK       LGT RAIN  70  67  90 NW7       29.96F
KENANSVILLE    CLOUDY    66  65  97 NW3       29.99R FOG
KINSTON        LGT RAIN  66  66 100 N5        29.98R
NEW BERN       LGT RAIN  70  66  87 NW5       29.97S
RICHLANDS      CLOUDY    66  63  88 CALM      29.96S
ROANOKE RAPIDS NOT AVBL
ROCKY MOUNT    CLOUDY    65  63  93 W5        29.99R
WASHINGTON     CLOUDY    66  65  94 CALM      29.97S
WHITEVILLE     CLOUDY    66  64  95 CALM      29.97R

$$

AMZ130-135-150-152-154-156-158-170-250-252-270-ANZ085-086-088-633-658-670-300200-
MARINE OBSERVATIONS

STATION/POSITION TIME  TEMP    WIND        PRES    WAVE   SWELL
                       AIR SEA DIR/SP/G            HT/PER HT/PER
                 (UTC) (F)     (DEG/KT/KT) (MB)    (FT/S) (FT/S)
CHESAPEAKE LIGHT 0100   71     330/  5/  6 1015.0
BUOY 44014       0100   71 73  340/  6/  8 1013.7    2/ 8   2/ 8
DUCK             0100   71 73   20/  7/  8 1013.3
2E DUCK          0100                        N/A     2/ 7
OREGON INLET     0100   70 74  350/  7/  9 1013.9
BUOY 44095       0100      73                N/A     3/ 8
20E OREGON INLET NOT AVBL
HATTERAS CG      0100   72 76   20/ 12/ 14 1014.0
DIAMOND BUOY     0100   72     340/ 16/ 19 1012.9    3/ 7   2/ 7
CAPE LOOKOUT     0100   72     360/  8/  9 1013.9
BEAUFORT LAB     0100   71 75  350/  8/ 10 1013.5
30 SE NEW RIVER  0100   74 80  350/ 14/ 17 1013.1    3/ 8   2/ 8
5 SE WRIGHTSVILL 0100   68 76   30/ 12/ 14   N/A
BUOY 41002       0033   79 81  120/  8/  8 1013.1    2/ 8   2/ 8
BUOY 41004       0100   75 81   50/ 21/ 25 1011.5    5/ 6   2/ 8

$$



USA.gov is the U.S. government's official web portal to all federal, state and local government web resources and services.